Stündliche Wetter Dzieraznia

Heute, 14 Juni, Montag

Zeit Temperatur Niederschläge Wind Luftdruck Luftfeuchtigkeit
00:00 +9°C° 0 mm 5 m/S 744 mmHg 82%
01:00 +9°C° 0 mm 5 m/S 744 mmHg 84%
02:00 +8°C° 0 mm 5 m/S 744 mmHg 87%
03:00 +7°C° 0 mm 4 m/S 744 mmHg 90%
04:00 +7°C° 0 mm 4 m/S 744 mmHg 93%
05:00 +8°C° 0 mm 4 m/S 744 mmHg 88%
06:00 +11°C° 0 mm 4 m/S 744 mmHg 82%
07:00 +13°C° 0 mm 4 m/S 745 mmHg 76%
08:00 +14°C° 0 mm 5 m/S 745 mmHg 70%
09:00 +16°C° 0 mm 5 m/S 744 mmHg 65%
10:00 +17°C° 0 mm 5 m/S 744 mmHg 59%
11:00 +19°C° 0 mm 5 m/S 744 mmHg 56%
12:00 +20°C° 0 mm 4 m/S 744 mmHg 53%
13:00 +20°C° 0 mm 4 m/S 744 mmHg 49%
14:00 +20°C° 0 mm 4 m/S 744 mmHg 51%
15:00 +20°C° 0 mm 4 m/S 743 mmHg 52%
16:00 +21°C° 0 mm 3 m/S 743 mmHg 53%
17:00 +19°C° 0 mm 3 m/S 743 mmHg 59%
18:00 +18°C° 0 mm 2 m/S 743 mmHg 65%
19:00 +17°C° 0 mm 2 m/S 743 mmHg 71%
20:00 +16°C° 0 mm 2 m/S 743 mmHg 74%
21:00 +14°C° 0 mm 1 m/S 743 mmHg 77%
22:00 +13°C° 0 mm 1 m/S 743 mmHg 80%
23:00 +12°C° 0 mm 1 m/S 743 mmHg 81%

Morgen, 15 Juni, Dienstag

Zeit Temperatur Niederschläge Wind Luftdruck Luftfeuchtigkeit
00:00 +12°C° 0 mm 1 m/S 743 mmHg 82%
01:00 +11°C° 0 mm 1 m/S 743 mmHg 83%
02:00 +11°C° 0 mm 1 m/S 743 mmHg 84%
03:00 +11°C° 0 mm 1 m/S 743 mmHg 84%
04:00 +11°C° 0 mm 1 m/S 743 mmHg 85%
05:00 +13°C° 0 mm 1 m/S 743 mmHg 80%
06:00 +15°C° 0 mm 1 m/S 743 mmHg 74%
07:00 +18°C° 0 mm 1 m/S 743 mmHg 69%
08:00 +19°C° 0 mm 1 m/S 743 mmHg 65%
09:00 +20°C° 0 mm 1 m/S 743 mmHg 61%
10:00 +22°C° 0 mm 1 m/S 743 mmHg 56%
11:00 +22°C° 0 mm 1 m/S 743 mmHg 54%
12:00 +23°C° 0 mm 1 m/S 742 mmHg 52%
13:00 +23°C° 0 mm 1 m/S 742 mmHg 51%
14:00 +23°C° 0 mm 1 m/S 742 mmHg 51%
15:00 +23°C° 0 mm 1 m/S 742 mmHg 52%
16:00 +23°C° 0 mm 1 m/S 742 mmHg 53%
17:00 +22°C° 0 mm 1 m/S 741 mmHg 59%
18:00 +21°C° 0 mm 1 m/S 741 mmHg 64%
19:00 +18°C° 0 mm 0 m/S 741 mmHg 69%
20:00 +19°C° 0 mm 1 m/S 741 mmHg 71%
21:00 +18°C° 0 mm 1 m/S 741 mmHg 73%
22:00 +16°C° 0 mm 1 m/S 742 mmHg 74%
23:00 +16°C° 0 mm 1 m/S 742 mmHg 75%

übermorgen, 16 Juni, Mittwoch

Zeit Temperatur Niederschläge Wind Luftdruck Luftfeuchtigkeit
00:00 +16°C° 0 mm 1 m/S 742 mmHg 76%
01:00 +16°C° 0 mm 1 m/S 742 mmHg 77%
02:00 +16°C° 0 mm 1 m/S 742 mmHg 80%
03:00 +16°C° 0 mm 1 m/S 742 mmHg 84%
04:00 +15°C° 0 mm 1 m/S 742 mmHg 87%
05:00 +18°C° 0 mm 1 m/S 742 mmHg 84%
06:00 +19°C° 0 mm 1 m/S 742 mmHg 81%
07:00 +19°C° 0 mm 2 m/S 743 mmHg 78%
08:00 +20°C° 0.3 mm 2 m/S 743 mmHg 75%
09:00 +21°C° 0.3 mm 2 m/S 743 mmHg 73%
10:00 +23°C° 0.3 mm 2 m/S 743 mmHg 70%
11:00 +23°C° 0.3 mm 2 m/S 743 mmHg 68%
12:00 +24°C° 0.3 mm 2 m/S 743 mmHg 67%
13:00 +24°C° 0.3 mm 2 m/S 743 mmHg 65%
14:00 +24°C° 0.3 mm 3 m/S 743 mmHg 67%
15:00 +24°C° 0.3 mm 3 m/S 743 mmHg 69%
16:00 +22°C° 0.3 mm 4 m/S 743 mmHg 70%
17:00 +21°C° 0 mm 3 m/S 743 mmHg 75%
18:00 +20°C° 0 mm 3 m/S 743 mmHg 79%
19:00 +19°C° 0 mm 3 m/S 743 mmHg 84%
20:00 +18°C° 0 mm 2 m/S 743 mmHg 85%
21:00 +17°C° 0 mm 2 m/S 743 mmHg 87%
22:00 +15°C° 0 mm 2 m/S 743 mmHg 88%
23:00 +15°C° 0 mm 2 m/S 743 mmHg 88%

17 Juni, Donnerstag

Zeit Temperatur Niederschläge Wind Luftdruck Luftfeuchtigkeit
00:00 +14°C° 0 mm 2 m/S 743 mmHg 88%
01:00 +14°C° 0 mm 2 m/S 743 mmHg 88%
02:00 +13°C° 0 mm 2 m/S 743 mmHg 87%
03:00 +13°C° 0 mm 2 m/S 743 mmHg 87%
04:00 +12°C° 0 mm 2 m/S 743 mmHg 87%
05:00 +14°C° 0 mm 2 m/S 743 mmHg 83%
06:00 +16°C° 0 mm 3 m/S 743 mmHg 78%
07:00 +17°C° 0 mm 3 m/S 744 mmHg 74%
08:00 +19°C° 0 mm 4 m/S 744 mmHg 70%
09:00 +20°C° 0 mm 4 m/S 744 mmHg 66%
10:00 +22°C° 0 mm 4 m/S 744 mmHg 62%
11:00 +22°C° 0 mm 4 m/S 744 mmHg 59%
12:00 +23°C° 0 mm 4 m/S 743 mmHg 56%
13:00 +25°C° 0 mm 4 m/S 743 mmHg 53%
14:00 +25°C° 0 mm 4 m/S 743 mmHg 55%
15:00 +25°C° 0 mm 4 m/S 743 mmHg 56%
16:00 +25°C° 0 mm 4 m/S 743 mmHg 57%
17:00 +23°C° 0 mm 4 m/S 743 mmHg 64%
18:00 +21°C° 0 mm 3 m/S 743 mmHg 71%
19:00 +20°C° 0 mm 3 m/S 742 mmHg 78%
20:00 +19°C° 0 mm 3 m/S 743 mmHg 82%
21:00 +18°C° 0 mm 3 m/S 743 mmHg 87%
22:00 +16°C° 0 mm 3 m/S 743 mmHg 91%
23:00 +16°C° 0 mm 2 m/S 743 mmHg 91%

18 Juni, Freitag

Zeit Temperatur Niederschläge Wind Luftdruck Luftfeuchtigkeit
00:00 +16°C° 0 mm 2 m/S 743 mmHg 92%
01:00 +16°C° 0 mm 2 m/S 742 mmHg 93%
02:00 +16°C° 0 mm 2 m/S 742 mmHg 93%
03:00 +16°C° 0 mm 2 m/S 742 mmHg 94%
04:00 +16°C° 0 mm 2 m/S 742 mmHg 95%
05:00 +17°C° 0 mm 3 m/S 742 mmHg 91%
06:00 +19°C° 0 mm 4 m/S 742 mmHg 87%
07:00 +21°C° 0 mm 4 m/S 742 mmHg 83%
08:00 +22°C° 0 mm 5 m/S 742 mmHg 78%
09:00 +23°C° 0 mm 5 m/S 742 mmHg 73%
10:00 +26°C° 0 mm 5 m/S 742 mmHg 68%
11:00 +26°C° 0 mm 5 m/S 742 mmHg 65%
12:00 +27°C° 0 mm 5 m/S 742 mmHg 62%
13:00 +28°C° 0 mm 5 m/S 742 mmHg 59%
14:00 +28°C° 0.1 mm 5 m/S 742 mmHg 62%
15:00 +27°C° 0.1 mm 5 m/S 742 mmHg 65%
16:00 +27°C° 0.1 mm 5 m/S 742 mmHg 68%
17:00 +26°C° 0.2 mm 5 m/S 742 mmHg 74%
18:00 +25°C° 0.2 mm 4 m/S 742 mmHg 79%
19:00 +22°C° 0.2 mm 4 m/S 742 mmHg 84%
20:00 +21°C° 0 mm 3 m/S 742 mmHg 88%
21:00 +20°C° 0 mm 3 m/S 742 mmHg 91%
22:00 +19°C° 0 mm 3 m/S 742 mmHg 94%
23:00 +19°C° 0 mm 3 m/S 742 mmHg 95%

19 Juni, Samstag

Zeit Temperatur Niederschläge Wind Luftdruck Luftfeuchtigkeit
00:00 +18°C° 0 mm 2 m/S 742 mmHg 96%
01:00 +18°C° 0 mm 2 m/S 742 mmHg 96%
02:00 +17°C° 0 mm 2 m/S 742 mmHg 97%
03:00 +17°C° 0 mm 2 m/S 742 mmHg 97%
04:00 +17°C° 0 mm 2 m/S 742 mmHg 97%
05:00 +18°C° 0 mm 3 m/S 742 mmHg 93%
06:00 +19°C° 0 mm 4 m/S 743 mmHg 89%
07:00 +20°C° 0 mm 5 m/S 743 mmHg 85%
08:00 +21°C° 0 mm 5 m/S 743 mmHg 81%
09:00 +22°C° 0 mm 5 m/S 743 mmHg 77%
10:00 +23°C° 0 mm 5 m/S 743 mmHg 72%
11:00 +25°C° 0 mm 5 m/S 743 mmHg 69%
12:00 +24°C° 0 mm 6 m/S 743 mmHg 66%
13:00 +26°C° 0 mm 6 m/S 743 mmHg 62%
14:00 +26°C° 0 mm 6 m/S 743 mmHg 64%
15:00 +26°C° 0 mm 6 m/S 742 mmHg 67%
16:00 +24°C° 0 mm 6 m/S 742 mmHg 69%
17:00 +23°C° 0 mm 6 m/S 742 mmHg 73%
18:00 +22°C° 0 mm 5 m/S 742 mmHg 77%
19:00 +21°C° 0 mm 5 m/S 742 mmHg 82%
20:00 +20°C° 0 mm 4 m/S 742 mmHg 86%
21:00 +19°C° 0 mm 3 m/S 742 mmHg 90%
22:00 +18°C° 0 mm 3 m/S 743 mmHg 94%
23:00 +17°C° 0 mm 3 m/S 742 mmHg 95%
Mehr zeigen

Wir brauchen deine Erlaubnis

Meteoprog und unser Service Anbieter werden persönliche Daten aufbewahren, so wie Cookies, Geräte Bezeichnung oder ähnliche Technologien von deinem Gerät und Prozess, so wie Persönliche Daten Inhalte und Werbungen, genauso wie social Media und den Verkehr zu analysieren.

  • Aufbewahrung und/oder Zugang zu deiner Geräte Informationen.

    Cookies, Geräte Bezeichnung oder andere Informationen, können aufbewahrt oder Zugang zu deinem Gerät erhalten, für den Grund, der oben angegeben wird.

  • Personalisierte Werbung und Inhalte, Messungen, Einblick in das Publikum und Produkt Entwicklung.

    Werbungen und Inhalte können personalisiert werden, basierend auf ein Profil. Mehr Daten können besser personalisierte Werbungen und Inhalte hinzufügen. Werbung und Inhalte können gezeigt und gemessen werden. Einblicke über das Publikum, welche die Werbung gesehen haben und den Inhalt, können abgeleitet werden. So wie Daten können genutzt werden, um es zu verbessern oder die Benutzer Erfahrung zu verbessern das System und die Software.

Wenn du “Ich stimme zu” klickst, erlaubst du uns, die Cookies zu benutzen die Geräte Bezeichnung, den Web oder ähnliche Technologien zu benutzen. Deine Settings, können in deinem Gerät bei deinem Browser geändert werden.

Für den bestimmten Zweck, berechtigten Interessen beruhen darauf, mehr als auf den Inhalt. Du kannst mehr darüber in unseren Privaten und Cookie Politik lesen.